Terug naar catalogus

COSMOS 252 DEB

ActiefLEO
NORAD 18556·DEBRIS·🇷🇺 Russia

Gelanceerd Nov 1, 1968 vanaf Baikonur Cosmodrome

Loading…

Volgende Passages (komende 24 uur)

TLE

VersSource: Space-Track

Epoch: Sep 13, 2026, 19:52 UTC

1 18556U 68097EP  26256.82794533  .00001763  00000-0  96480-3 0  9994
2 18556  62.1934  58.6241 0391750 286.6765  69.1617 13.82171745510064

Volg COSMOS 252 DEB in realtime met AllMySat

Download on the App Store